Erzincan, Turkey

3:21 PM +03 on May 24, 2018 (GMT +0300)
Erzincan

Weather History for LTCD - January, 2013

Change the Weather History Date:

Thursday, January 3, 2013

  Actual Average Record
Temperature  
Mean Temperature 27 °F -  
Max Temperature 41 °F 34 °F - ()
Min Temperature 13 °F 20 °F - ()
Degree Days  
Heating Degree Days 38    
Moisture  
Dew Point 16 °F    
Average Humidity 74    
Maximum Humidity 99    
Minimum Humidity 19    
Precipitation  
Precipitation 0.00 in 0.04 in - ()
Sea Level Pressure  
Sea Level Pressure 30.36 in    
Wind  
Wind Speed 1 mph ()    
Max Wind Speed 5 mph    
Max Gust Speed -    
Visibility 7.5 miles    
Events      
T = Trace of Precipitation, MM = Missing Value Source: Averaged Metar Reports

Daily Weather History Graph

Daily Weather History Graph

Search for Another Location

Airport or City:

Astronomy

Jan. 03, 2013 Rise Set
Actual Time 6:43 AM EET 4:09 PM EET
Civil Twilight 6:13 AM EET 4:40 PM EET
Nautical Twilight 5:39 AM EET 5:13 PM EET
Astronomical Twilight 5:06 AM EET 5:46 PM EET
Moon 10:21 PM EET (1/3) 9:45 AM EET (1/3)
Length of Visible Light 10h 27m
Length of Day
9h 26m
Waning Gibbous, 68% of the Moon is Illuminated
Jan 3
Waning Gibbous
Jan 5
Last Quarter
Jan 11
New
Jan 19
First Quarter
Jan 27
Full

Hourly Weather History & Observations

Time (EET) Temp. Windchill Dew Point Humidity Pressure Visibility Wind Dir Wind Speed Gust Speed Precip Events Conditions
1:50 AM 19.4 °F 12.8 °F 12.2 °F 74% 30.39 in - ESE 4.6 mph - N/A   Clear
2:00 AM 19 °F - 15 °F 75%  in 6 mi ESE 4.6 mph - -  
2:50 AM 17.6 °F - 15.8 °F 93% 30.39 in - Calm Calm - N/A   Clear
3:50 AM 15.8 °F - 14.0 °F 93% 30.39 in - Calm Calm - N/A   Clear
4:50 AM 15.8 °F - 14.0 °F 93% 30.39 in - Calm Calm - N/A   Clear
5:50 AM 14.0 °F - 12.2 °F 93% 30.39 in - Calm Calm - N/A   Clear
6:50 AM 14.0 °F - 12.2 °F 93% 30.42 in - Calm Calm - N/A   Clear
7:50 AM 17.6 °F - 15.8 °F 93% 30.42 in - Calm Calm - N/A   Clear
8:00 AM 17 °F - 17 °F 99%  in 6 mi Calm Calm - -  
9:50 AM 28.4 °F 24.6 °F 17.6 °F 64% 30.42 in - East 3.5 mph - N/A   Clear
10:50 AM 32.0 °F 28.7 °F 19.4 °F 60% 30.39 in - ESE 3.5 mph - N/A   Clear
11:50 AM 35.6 °F - 15.8 °F 44% 30.36 in - Variable 2.3 mph - N/A   Clear
12:50 PM 37.4 °F - 15.8 °F 41% 30.33 in - Variable 2.3 mph - N/A   Clear
1:50 PM 41.0 °F - 15.8 °F 36% 30.33 in - Calm Calm - N/A   Clear
2:00 PM 40 °F - 12 °F 19%  in 6 mi Calm Calm - -  
2:50 PM 39.2 °F - 15.8 °F 39% 30.33 in - Variable 1.2 mph - N/A   Clear
3:50 PM 35.6 °F - 17.6 °F 48% 30.33 in - WSW 1.2 mph - N/A   Clear
4:50 PM 30.2 °F - 19.4 °F 64% 30.33 in - Calm Calm - N/A   Clear
5:50 PM 26.6 °F - 19.4 °F 74% 30.33 in - Calm Calm - N/A   Clear
6:50 PM 24.8 °F - 21.2 °F 86% 30.33 in - Calm Calm - N/A   Clear
7:50 PM 23.0 °F - 19.4 °F 86% 30.33 in - Calm Calm - N/A   Clear
8:00 PM 22 °F - 20 °F 89%  in 12 mi Calm Calm - -  
8:50 PM 21.2 °F - 17.6 °F 86% 30.30 in - Calm Calm - N/A   Clear
9:50 PM 21.2 °F - 17.6 °F 86% 30.33 in - Calm Calm - N/A   Clear
10:50 PM 19.4 °F - 17.6 °F 93% 30.30 in - Calm Calm - N/A   Clear
11:50 PM 19.4 °F - 17.6 °F 93% 30.30 in - Calm Calm - N/A   Clear